Grand Island, NE

10:47 PM CST on December 08, 2019 (GMT -0600)
Central Nebraska Regional

Weather History for KGRI - November, 2019

Change the Weather History Date:

Friday, November 15, 2019

  Actual Average Record
Temperature  
Mean Temperature 46 °F 38 °F  
Max Temperature 63 °F 50 °F 76 °F (2001)
Min Temperature 28 °F 27 °F 5 °F (1940)
Degree Days  
Heating Degree Days 20 27  
Month to date heating degree days 411 345  
Since 1 July heating degree days 972 868  
Cooling Degree Days 0 0  
Month to date cooling degree days 0 0  
Year to date cooling degree days 1153 1034  
Moisture  
Dew Point 29 °F    
Average Humidity 55    
Maximum Humidity 85    
Minimum Humidity 31    
Precipitation  
Precipitation 0.00 in 0.04 in 1.13 in (1926)
Month to date precipitation 0.06 0.62  
Year to date precipitation 36.36 25.48  
Snow  
Snow 0.00 in 0.10 in 2.60 in (1988)
Month to date snowfall 1.5 1.2  
Since 1 July snowfall 3.1 2.3  
Since 1 September snowfall 3.1 2.3  
Snow Depth 0.00 in    
Sea Level Pressure  
Sea Level Pressure 30.21 in    
Wind  
Wind Speed 10 mph ()    
Max Wind Speed 25 mph    
Max Gust Speed 35 mph    
Visibility 10.0 miles    
Events      
T = Trace of Precipitation, MM = Missing Value Source: Averaged Metar Reports

Daily Weather History Graph

Daily Weather History Graph

Search for Another Location

Airport or City:

Astronomy

Nov. 15, 2019 Rise Set
Actual Time 7:20 AM CST 5:14 PM CST
Civil Twilight 6:50 AM CST 5:44 PM CST
Nautical Twilight 6:17 AM CST 6:17 PM CST
Astronomical Twilight 5:45 AM CST 6:49 PM CST
Moon 7:50 PM CST (11/15) 10:19 AM CST (11/15)
Length of Visible Light 10h 53m
Length of Day
9h 54m
Waning Gibbous, 90% of the Moon is Illuminated
Nov 15
Waning Gibbous
Nov 19
Last Quarter
Nov 26
New
Dec 4
First Quarter
Dec 11
Full

Hourly Weather History & Observations

Time (CST) Temp. Windchill Dew Point Humidity Pressure Visibility Wind Dir Wind Speed Gust Speed Precip Events Conditions
12:53 AM 36.0 °F 29.0 °F 27.0 °F 70% 30.34 in 10.0 mi SSW 9.2 mph - N/A   Clear
1:53 AM 35.1 °F 28.6 °F 27.0 °F 72% 30.32 in 10.0 mi SSW 8.1 mph - N/A   Clear
2:53 AM 33.1 °F 27.7 °F 26.1 °F 75% 30.32 in 10.0 mi South 5.8 mph - N/A   Clear
3:53 AM 30.9 °F 25.2 °F 25.0 °F 79% 30.31 in 10.0 mi South 5.8 mph - N/A   Clear
5:53 AM 28.9 °F 22.8 °F 24.1 °F 82% 30.31 in 10.0 mi South 5.8 mph - N/A   Clear
6:53 AM 30.0 °F 25.2 °F 24.1 °F 79% 30.30 in 10.0 mi South 4.6 mph - N/A   Clear
7:53 AM 32.0 °F 24.8 °F 26.1 °F 79% 30.29 in 10.0 mi South 8.1 mph - N/A   Clear
8:53 AM 39.9 °F 32.9 °F 30.0 °F 68% 30.28 in 10.0 mi South 11.5 mph - N/A   Clear
9:53 AM 46.9 °F - 32.0 °F 56% 30.27 in 10.0 mi South 12.7 mph - N/A   Clear
10:53 AM 55.0 °F - 33.1 °F 43% 30.25 in 10.0 mi South 17.3 mph - N/A   Clear
11:53 AM 59.0 °F - 33.1 °F 38% 30.21 in 10.0 mi South 17.3 mph 26.5 mph N/A   Clear
12:53 PM 61.0 °F - 33.1 °F 35% 30.17 in 10.0 mi South 20.7 mph 29.9 mph N/A   Clear
1:53 PM 63.0 °F - 32.0 °F 31% 30.14 in 10.0 mi South 21.9 mph 33.4 mph N/A   Clear
2:53 PM 62.1 °F - 32.0 °F 32% 30.13 in 10.0 mi South 23.0 mph 32.2 mph N/A   Clear
3:53 PM 61.0 °F - 30.9 °F 32% 30.13 in 10.0 mi South 20.7 mph 29.9 mph N/A   Clear
4:53 PM 57.9 °F - 30.9 °F 36% 30.13 in 10.0 mi South 15.0 mph - N/A   Clear
5:53 PM 54.0 °F - 30.9 °F 41% 30.14 in 10.0 mi SSE 15.0 mph 24.2 mph N/A   Clear
6:53 PM 51.1 °F - 30.0 °F 44% 30.15 in 10.0 mi SSE 15.0 mph 26.5 mph N/A   Clear
7:53 PM 48.0 °F - 30.0 °F 50% 30.16 in 10.0 mi SSE 16.1 mph 26.5 mph N/A   Clear
8:53 PM 46.0 °F 40.2 °F 30.0 °F 54% 30.14 in 10.0 mi SSE 12.7 mph - N/A   Clear
9:53 PM 45.0 °F 37.9 °F 30.0 °F 56% 30.14 in 10.0 mi SSE 16.1 mph 25.3 mph N/A   Clear
10:53 PM 43.0 °F 35.7 °F 30.0 °F 60% 30.12 in 10.0 mi South 15.0 mph - N/A   Clear
11:53 PM 42.1 °F 34.9 °F 30.0 °F 62% 30.10 in 10.0 mi South 13.8 mph 23.0 mph N/A   Clear